User: anonymous
Location: Mentone
(34.5413°N, 85.5351°W)
Time: 08:30:27
(UTC-05:00)
Language:

Centaur AC-72 - Orbit

View from above orbital plane
View from above orbital plane
View from above satellite
View from above satellite

Ground track
Ground track

The orbit data is extracted from the following two-line orbital elements,

1 21907U 92013B   14210.51631127 -.00000099  00000-0  00000+0 0  8995
2 21907 019.1087 247.3048 6964028 256.8976 327.4688 02.25609388184490
Epoch (UTC): 29 July 2014 12:23:29
Eccentricity: 0.6964028
inclination: 19.1087°
perigee height: 1077 km
apogee height: 35279 km
right ascension of ascending node: 247.3048°
argument of perigee: 256.8976°
revolutions per day: 2.25609388
mean anomaly at epoch: 327.4688°
orbit number at epoch: 18449

The dashed part of the orbit path shows where the satellite is in the earth's shadow,  

DLR